Sigfox identifier Datetime Temperature Humidity SNR
003AA4EB 2019-04-23 14:56:40 16.5 31 22.5
003AA4EB 2019-04-23 14:22:22 16.3 31 22.4
003AA4EB 2019-04-23 13:48:04 16.3 31 22.4
003AA4EB 2019-04-23 13:13:46 16 31 22.2
003AA4EB 2019-04-23 12:39:27 16 31 22.2
003AA4EB 2019-04-23 12:05:09 16 31 22
003AA4EB 2019-04-23 11:30:51 15.8 31 21.9
003AA4EB 2019-04-23 10:56:33 15.8 31 21.8
003AA4EB 2019-04-23 10:22:14 15.8 31 21.5
003AA4EB 2019-04-23 09:47:56 15.8 30 21.4
003AA4EB 2019-04-23 09:13:37 15.8 30 21
003AA4EB 2019-04-23 08:39:18 15.8 30 20.1
003AA4EB 2019-04-23 08:05:00 15.8 30 19
003AA4EB 2019-04-23 07:30:43 15.8 30 19
003AA4EB 2019-04-23 06:56:27 15.8 30 19
003AA4EB 2019-04-23 06:22:08 15.8 30 19.1
003AA4EB 2019-04-23 05:47:49 15.8 30 19.2
003AA4EB 2019-04-23 05:13:29 15.8 30 19.2
003AA4EB 2019-04-23 04:39:11 15.8 30 19.3
003AA4EB 2019-04-23 04:04:52 15.8 30 19.3
003AA4EB 2019-04-23 03:30:33 15.8 30 19.5
003AA4EB 2019-04-23 02:56:14 15.8 30 19.3
003AA4EB 2019-04-23 02:21:55 15.8 30 19.4
003AA4EB 2019-04-23 01:47:36 15.8 30 19.4
003AA4EB 2019-04-23 01:13:16 15.8 30 19.3
003AA4EB 2019-04-23 00:38:56 15.8 30 19.2
003AA4EB 2019-04-23 00:04:37 15.8 30 19.1
003AA4EB 2019-04-22 23:30:22 15.9 30 19
003AA4EB 2019-04-22 22:55:59 15.9 30 19
003AA4EB 2019-04-22 22:21:40 16 30 20.5
003AA4EB 2019-04-22 21:47:21 16 30 20.4
003AA4EB 2019-04-22 21:13:03 16 30 20.2
003AA4EB 2019-04-22 20:38:45 16 30 20.1
003AA4EB 2019-04-22 20:04:26 16 30 20.1
003AA4EB 2019-04-22 19:30:05 16 30 20
003AA4EB 2019-04-22 18:55:46 16.1 30 19.9
003AA4EB 2019-04-22 18:21:26 16.2 30 19.8
003AA4EB 2019-04-22 17:47:06 16 30 19.8
003AA4EB 2019-04-22 17:12:47 16 30 19.7
003AA4EB 2019-04-22 16:38:29 16 30 19.6
003AA4EB 2019-04-22 16:04:11 16 30 19.5
003AA4EB 2019-04-22 15:29:53 16 30 19.5
003AA4EB 2019-04-22 14:55:35 16 30 19.4
003AA4EB 2019-04-22 14:21:17 16 30 19.3
003AA4EB 2019-04-22 13:46:59 15.9 30 19.1
003AA4EB 2019-04-22 13:12:40 15.8 30 19.2
003AA4EB 2019-04-22 12:38:20 15.8 30 19
003AA4EB 2019-04-22 12:04:02 15.8 30 19
003AA4EB 2019-04-22 11:29:43 15.8 30 19.1
003AA4EB 2019-04-22 10:55:24 15.8 30 19.1
003AA4EB 2019-04-22 10:21:05 15.8 30 19.1
003AA4EB 2019-04-22 09:46:44 15.8 29 19
003AA4EB 2019-04-22 09:12:25 15.8 29 19.1
003AA4EB 2019-04-22 08:38:07 15.8 29 19.3
003AA4EB 2019-04-22 08:03:48 15.8 29 16.7
003AA4EB 2019-04-22 07:29:30 15.8 29 17.1
003AA4EB 2019-04-22 06:55:09 15.8 29 17.3
003AA4EB 2019-04-22 06:20:50 15.8 29 17.5
003AA4EB 2019-04-22 05:46:32 15.8 29 17.7
003AA4EB 2019-04-22 05:12:13 15.8 29 17.9
003AA4EB 2019-04-22 04:37:54 15.8 29 18
003AA4EB 2019-04-22 04:03:34 15.8 29 18
003AA4EB 2019-04-22 03:29:15 15.8 29 18
003AA4EB 2019-04-22 02:54:56 15.8 29 18.2
003AA4EB 2019-04-22 02:20:37 15.7 29 18.2
003AA4EB 2019-04-22 01:46:19 15.6 29 18.4
003AA4EB 2019-04-22 01:12:00 15.6 29 18.7
003AA4EB 2019-04-22 00:37:43 15.6 29 18.7
003AA4EB 2019-04-22 00:03:22 15.6 29 18.7
003AA4EB 2019-04-21 23:29:05 15.6 29 18.8
003AA4EB 2019-04-21 22:54:46 15.6 29 19
003AA4EB 2019-04-21 22:20:28 15.6 29 19.1
003AA4EB 2019-04-21 21:46:10 15.6 29 19.3
003AA4EB 2019-04-21 21:11:51 15.6 29 19.4
003AA4EB 2019-04-21 20:37:32 15.6 29 19.3
003AA4EB 2019-04-21 20:03:14 15.6 29 19.2
003AA4EB 2019-04-21 19:28:55 15.6 29 19.2
003AA4EB 2019-04-21 18:54:36 15.6 29 19
003AA4EB 2019-04-21 18:20:17 15.6 29 18.9
003AA4EB 2019-04-21 17:45:58 15.6 29 18.8
003AA4EB 2019-04-21 17:11:38 15.6 29 18.6
003AA4EB 2019-04-21 16:37:18 15.6 29 18.5
003AA4EB 2019-04-21 16:02:59 15.6 29 18.4
003AA4EB 2019-04-21 15:28:40 15.6 29 18.2
003AA4EB 2019-04-21 14:54:21 15.6 29 18
003AA4EB 2019-04-21 14:20:01 15.6 29 17.9
003AA4EB 2019-04-21 13:45:43 15.6 29 17.9
003AA4EB 2019-04-21 13:11:23 15.6 28 17.8
003AA4EB 2019-04-21 12:37:04 15.6 28 17.7
003AA4EB 2019-04-21 12:02:43 15.6 28 17.6
003AA4EB 2019-04-21 11:28:24 15.6 28 17.5
003AA4EB 2019-04-21 10:54:04 15.6 28 17.2
003AA4EB 2019-04-21 10:19:45 15.6 28 17.3
003AA4EB 2019-04-21 09:45:24 15.6 28 17.5
003AA4EB 2019-04-21 09:11:04 15.8 28 17.5
003AA4EB 2019-04-21 08:36:45 15.8 28 17.4
003AA4EB 2019-04-21 08:02:27 15.8 28 17.3
003AA4EB 2019-04-21 07:28:05 15.8 28 17.2
003AA4EB 2019-04-21 06:53:46 15.8 28 17.1
003AA4EB 2019-04-21 06:19:27 15.8 28 17.2
003AA4EB 2019-04-21 05:45:09 15.8 28 17.2
003AA4EB 2019-04-21 05:10:50 15.8 28 17.4
003AA4EB 2019-04-21 04:36:31 15.8 28 17.5
003AA4EB 2019-04-21 04:02:10 15.8 28 17.6
003AA4EB 2019-04-21 03:27:56 15.8 28 17.8
003AA4EB 2019-04-21 02:53:33 15.8 28 18
003AA4EB 2019-04-21 02:19:15 15.7 28 18.3
003AA4EB 2019-04-21 01:44:55 15.8 28 18.4
003AA4EB 2019-04-21 01:10:36 15.7 28 18.6
003AA4EB 2019-04-21 00:36:17 15.8 28 18.7
003AA4EB 2019-04-21 00:01:57 15.7 28 18.9
003AA4EB 2019-04-20 23:27:39 15.7 28 18.8
003AA4EB 2019-04-20 22:53:18 15.6 28 18.9
003AA4EB 2019-04-20 22:18:59 15.7 28 18.9
003AA4EB 2019-04-20 21:44:41 15.7 28 19
003AA4EB 2019-04-20 21:10:22 15.7 28 19
003AA4EB 2019-04-20 20:36:03 15.8 28 19
003AA4EB 2019-04-20 20:01:44 15.8 28 18.9
003AA4EB 2019-04-20 19:27:24 15.8 28 18.8
003AA4EB 2019-04-20 18:53:06 15.8 28 18.7
003AA4EB 2019-04-20 18:18:45 15.8 28 18.7
003AA4EB 2019-04-20 17:44:26 15.8 28 18.7
003AA4EB 2019-04-20 17:10:09 15.7 27 18.7
003AA4EB 2019-04-20 16:35:50 15.8 27 18.7
003AA4EB 2019-04-20 16:01:32 15.8 27 18.8
003AA4EB 2019-04-20 15:27:12 15.7 27 18.9
003AA4EB 2019-04-20 14:52:56 15.7 27 19.1
003AA4EB 2019-04-20 14:18:35 15.6 27 19.2
003AA4EB 2019-04-20 13:44:15 15.6 27 19.3
003AA4EB 2019-04-20 13:09:55 15.7 27 19.3
003AA4EB 2019-04-20 12:35:35 15.7 27 19.3
003AA4EB 2019-04-20 12:01:14 15.8 27 18.9
003AA4EB 2019-04-20 11:26:54 15.8 27 18.9
003AA4EB 2019-04-20 10:52:35 15.8 27 18.8
003AA4EB 2019-04-20 10:18:15 15.8 27 18.7
003AA4EB 2019-04-20 09:43:55 15.8 27 18.9
003AA4EB 2019-04-20 09:09:36 15.8 27 18.9
003AA4EB 2019-04-20 08:35:16 15.8 27 18.9
003AA4EB 2019-04-20 08:00:57 15.9 27 18.8
003AA4EB 2019-04-20 07:26:36 15.9 27 18.9
003AA4EB 2019-04-20 06:52:17 15.8 27 18.8
003AA4EB 2019-04-20 06:17:57 15.9 27 19
003AA4EB 2019-04-20 05:43:39 15.8 27 18.9
003AA4EB 2019-04-20 05:09:17 15.9 27 19
003AA4EB 2019-04-20 04:34:57 15.9 27 19.3
003AA4EB 2019-04-20 04:00:38 16 27 19.3
003AA4EB 2019-04-20 03:26:18 16 27 19.5
003AA4EB 2019-04-20 02:51:58 16 27 19.6
003AA4EB 2019-04-20 02:17:38 16 27 19.4
003AA4EB 2019-04-20 01:43:18 16 27 19.3
003AA4EB 2019-04-20 01:08:59 16.1 27 19.5
003AA4EB 2019-04-20 00:34:40 16.2 27 19.4
003AA4EB 2019-04-20 00:00:20 16.3 27 19.4
003AA4EB 2019-04-19 23:26:01 16.3 26 19.2
003AA4EB 2019-04-19 22:51:44 16.3 26 19.1
003AA4EB 2019-04-19 22:17:25 16.3 26 19
003AA4EB 2019-04-19 21:43:02 16.3 26 18.9
003AA4EB 2019-04-19 21:08:42 16.3 26 19
003AA4EB 2019-04-19 20:34:22 16.3 26 18.9
003AA4EB 2019-04-19 20:00:03 16.3 26 18.6
003AA4EB 2019-04-19 19:25:43 16.3 26 18.7
003AA4EB 2019-04-19 18:51:24 16.4 26 18.8
003AA4EB 2019-04-19 18:17:04 16.4 26 18.8
003AA4EB 2019-04-19 17:42:44 16.3 26 18.7
003AA4EB 2019-04-19 17:08:25 16.3 26 18.7
003AA4EB 2019-04-19 16:34:05 16.3 26 18.5
003AA4EB 2019-04-19 15:59:46 16.3 26 18.4
003AA4EB 2019-04-19 15:25:26 16.3 26 18.3
003AA4EB 2019-04-19 14:51:07 16.3 26 18
003AA4EB 2019-04-19 14:16:47 16.2 26 17.9
003AA4EB 2019-04-19 13:42:28 16.1 26 17.5
003AA4EB 2019-04-19 13:08:08 16 26 17.4
003AA4EB 2019-04-19 12:33:49 16 26 17.5
003AA4EB 2019-04-19 11:59:30 16 26 17.5
003AA4EB 2019-04-19 11:25:11 16 26 17.3
003AA4EB 2019-04-19 10:50:52 16 26 17.1
003AA4EB 2019-04-19 10:16:33 16 26 17
003AA4EB 2019-04-19 09:42:13 16 26 17.1
003AA4EB 2019-04-19 09:07:55 16 26 17.5
003AA4EB 2019-04-19 08:33:35 16 26 17.8
003AA4EB 2019-04-19 07:59:16 16 25 18.3
003AA4EB 2019-04-19 07:24:56 16 25 18.2
003AA4EB 2019-04-19 06:50:37 16 25 18.1
003AA4EB 2019-04-19 06:16:18 16.1 25 18.9
003AA4EB 2019-04-19 05:41:58 16.1 25 19.5
003AA4EB 2019-04-19 05:07:39 16.3 25 20.2
003AA4EB 2019-04-19 04:33:20 16.2 25 20.6
003AA4EB 2019-04-19 03:59:02 16.3 25 21.1
003AA4EB 2019-04-19 03:24:43 16.3 25 21.5
003AA4EB 2019-04-19 02:50:24 16.3 25 21.4
003AA4EB 2019-04-19 02:16:06 16.3 25 21.5
003AA4EB 2019-04-19 01:41:47 16.3 25 21.7
003AA4EB 2019-04-19 01:07:28 16.5 25 21.8
003AA4EB 2019-04-19 00:33:08 16.5 25 21.8
003AA4EB 2019-04-18 23:58:48 16.5 25 21.9
003AA4EB 2019-04-18 23:24:30 16.7 25 22.1
003AA4EB 2019-04-18 22:50:11 16.7 25 22
003AA4EB 2019-04-18 22:15:52 16.7 25 22
003AA4EB 2019-04-18 21:41:33 16.7 25 22.2
003AA4EB 2019-04-18 21:07:14 16.7 25 22.4
003AA4EB 2019-04-18 20:32:55 16.7 25 22.7
003AA4EB 2019-04-18 19:58:36 16.8 25 22.7
003AA4EB 2019-04-18 19:24:17 16.9 25 23
003AA4EB 2019-04-18 18:50:00 16.7 25 23
003AA4EB 2019-04-18 18:15:41 16.8 25 23.1
003AA4EB 2019-04-18 17:41:22 16.7 25 23.2
003AA4EB 2019-04-18 17:07:04 16.7 25 23.3
003AA4EB 2019-04-18 16:32:46 16.7 25 23.5
003AA4EB 2019-04-18 15:58:28 16.7 25 23.4
003AA4EB 2019-04-18 15:24:08 16.5 25 23.3
003AA4EB 2019-04-18 14:49:47 16.5 25 23.3
003AA4EB 2019-04-18 14:15:27 16.5 25 23.2
003AA4EB 2019-04-18 13:41:07 16.5 25 23.1
003AA4EB 2019-04-18 13:06:48 16.4 24 22.8
003AA4EB 2019-04-18 12:32:30 16.4 24 22.9
003AA4EB 2019-04-18 11:58:08 16.4 24 22.8
003AA4EB 2019-04-18 11:23:50 16.4 24 22.8
003AA4EB 2019-04-18 10:49:29 16.4 24 22.9
003AA4EB 2019-04-18 10:15:11 16.3 24 22.8
003AA4EB 2019-04-18 09:40:52 16.3 24 22.9
003AA4EB 2019-04-18 09:06:32 16.3 24 22.8
003AA4EB 2019-04-18 08:32:13 16.5 24 22.9
003AA4EB 2019-04-18 07:57:54 16.5 24 23
003AA4EB 2019-04-18 07:23:36 16.5 24 23
003AA4EB 2019-04-18 06:49:17 16.5 24 22.9
003AA4EB 2019-04-18 06:15:00 16.5 24 22.8
003AA4EB 2019-04-18 05:40:39 16.4 24 22.7
003AA4EB 2019-04-18 05:06:20 16.4 24 22.9
003AA4EB 2019-04-18 04:32:01 16.5 24 22.9
003AA4EB 2019-04-18 03:57:42 16.5 24 22.7
003AA4EB 2019-04-18 03:23:22 16.5 24 22.8
003AA4EB 2019-04-18 02:49:03 16.5 23 22.7
003AA4EB 2019-04-18 02:14:44 16.5 23 22.6
003AA4EB 2019-04-18 01:40:24 16.7 23 22.6
003AA4EB 2019-04-18 01:06:05 16.7 23 22.5
003AA4EB 2019-04-18 00:31:45 16.9 23 22.4
003AA4EB 2019-04-17 23:57:24 16.9 23 22.2
003AA4EB 2019-04-17 23:23:04 16.9 23 22.3
003AA4EB 2019-04-17 22:48:45 17 23 22.4
003AA4EB 2019-04-17 22:14:25 17 23 22.4
003AA4EB 2019-04-17 21:40:06 16.9 23 22.3
003AA4EB 2019-04-17 21:05:47 16.9 23 22.3
003AA4EB 2019-04-17 20:31:27 16.9 23 22.4
003AA4EB 2019-04-17 19:57:08 16.9 23 22.4
003AA4EB 2019-04-17 19:22:50 16.9 23 22.4
003AA4EB 2019-04-17 18:48:30 16.9 23 22.5
003AA4EB 2019-04-17 18:14:10 16.9 23 22.5
003AA4EB 2019-04-17 17:39:50 16.9 23 22.4
003AA4EB 2019-04-17 17:05:30 16.9 23 22.4
003AA4EB 2019-04-17 16:31:10 16.9 23 23.2
003AA4EB 2019-04-17 15:56:50 16.9 23 23
003AA4EB 2019-04-17 15:22:30 16.9 22 22.9
003AA4EB 2019-04-17 14:48:10 17.1 22 22.8
003AA4EB 2019-04-17 14:13:50 17.1 22 23.1
003AA4EB 2019-04-17 13:39:31 17.3 22 23
003AA4EB 2019-04-17 13:05:09 17.3 23 23.1
003AA4EB 2019-04-17 12:30:48 17.3 22 23.7
003AA4EB 2019-04-17 11:56:26 17.3 22 23.6
003AA4EB 2019-04-17 11:22:05 17.3 22 23.4
003AA4EB 2019-04-17 10:47:45 17.3 22 23.3
003AA4EB 2019-04-17 10:13:26 17.3 22 23.3
003AA4EB 2019-04-17 09:39:06 17.3 22 23.2
003AA4EB 2019-04-17 09:04:46 17.4 22 23.2
003AA4EB 2019-04-17 08:30:26 17.5 22 23.2
003AA4EB 2019-04-17 07:56:06 17.7 22 23.5
003AA4EB 2019-04-17 07:21:46 17.8 22 23.6
003AA4EB 2019-04-17 06:47:26 17.9 22 23.6
003AA4EB 2019-04-17 06:13:05 18 22 23.6
003AA4EB 2019-04-17 05:38:44 18 22 23.7
003AA4EB 2019-04-17 05:04:24 18 22 23.7
003AA4EB 2019-04-17 04:30:03 18.2 21 23.7
003AA4EB 2019-04-17 03:55:43 18.2 21 23.6
003AA4EB 2019-04-17 03:21:23 18.2 21 23.5
003AA4EB 2019-04-17 02:47:03 18.4 21 23.5
003AA4EB 2019-04-17 02:12:43 18.4 21 22.7
003AA4EB 2019-04-17 01:38:23 18.4 21 22.7
003AA4EB 2019-04-17 01:04:04 18.4 21 22.5
003AA4EB 2019-04-17 00:29:45 18.5 21 22.6
003AA4EB 2019-04-16 23:55:26 18.4 21 22.3
003AA4EB 2019-04-16 23:21:05 18.6 21 23
003AA4EB 2019-04-16 22:46:45 18.7 20 22.8
003AA4EB 2019-04-16 22:12:25 19 21 21.9
003AA4EB 2019-04-16 21:38:05 19.1 21 21.9
003AA4EB 2019-04-16 21:03:44 19.2 21 22
003AA4EB 2019-04-16 20:29:24 19.3 21 22.2
003AA4EB 2019-04-16 19:55:04 19.4 20 22.2
003AA4EB 2019-04-16 19:20:44 19.5 20 22.1
003AA4EB 2019-04-16 18:46:24 19.5 20 22.3
003AA4EB 2019-04-16 18:12:04 19.5 20 22.2
003AA4EB 2019-04-16 17:03:26 19.9 20 21.7
003AA4EB 2019-04-16 16:29:05 20.1 20 21.7
003AA4EB 2019-04-16 15:54:45 20.3 20 21.6
003AA4EB 2019-04-16 15:20:26 20.6 20 21.4
003AA4EB 2019-04-16 14:46:06 21 20 21.1
003AA4EB 2019-04-16 13:03:07 21.2 20 21
003AA4EB 2019-04-16 12:28:47 21.2 20 20.8
003AA4EB 2019-04-16 11:54:27 21.2 20 20.8
003AA4EB 2019-04-16 11:20:10 21.2 20 21.1
003AA4EB 2019-04-16 10:45:46 21.2 20 21
003AA4EB 2019-04-16 10:11:27 21.2 20 21
003AA4EB 2019-04-16 09:37:07 21.2 20 21
003AA4EB 2019-04-16 09:02:47 21.2 20 21
003AA4EB 2019-04-16 08:28:27 21.2 20 22
003AA4EB 2019-04-16 07:54:07 21.2 20 21.9
003AA4EB 2019-04-16 07:19:47 21.2 20 20.7
003AA4EB 2019-04-16 06:45:27 21.2 20 20.7
003AA4EB 2019-04-16 06:11:07 21.2 20 20.7
003AA4EB 2019-04-16 05:36:48 21.2 20 20.9
003AA4EB 2019-04-16 05:02:28 21.2 20 20.7
003AA4EB 2019-04-16 04:28:09 21.2 20 20.4
003AA4EB 2019-04-16 03:53:48 21.2 20 20.5
003AA4EB 2019-04-16 03:19:29 21.2 20 20.5
003AA4EB 2019-04-16 02:45:09 21.2 20 20.3
003AA4EB 2019-04-16 02:10:49 21.2 20 21.2
003AA4EB 2019-04-16 01:36:29 21.2 19 21.7
003AA4EB 2019-04-16 01:02:09 21.3 19 21.7
003AA4EB 2019-04-16 00:27:49 21.4 19 21.8
003AA4EB 2019-04-15 23:53:30 21.4 19 22.2
003AA4EB 2019-04-15 23:19:09 21.4 19 22.3
003AA4EB 2019-04-15 22:44:51 21.4 19 22.8
003AA4EB 2019-04-15 22:10:32 21.4 19 23.1
003AA4EB 2019-04-15 21:36:12 21.4 19 23.4
003AA4EB 2019-04-15 21:01:52 21.4 19 23.4
003AA4EB 2019-04-15 20:27:33 21.4 19 24
003AA4EB 2019-04-15 19:53:14 21.4 19 24.2
003AA4EB 2019-04-15 19:18:55 21.4 19 24.4
003AA4EB 2019-04-15 18:44:36 21.4 19 24.7
003AA4EB 2019-04-15 18:10:16 21.6 19 24.2
003AA4EB 2019-04-15 17:35:57 21.6 19 24.5
003AA4EB 2019-04-15 17:01:38 21.6 19 25
003AA4EB 2019-04-15 16:27:17 21.8 19 25.1
003AA4EB 2019-04-15 15:52:57 21.8 18 25.5
003AA4EB 2019-04-15 15:18:37 21.9 18 25.6
003AA4EB 2019-04-15 14:44:16 22 18 25.9
003AA4EB 2019-04-15 14:09:57 22.2 18 26.1
003AA4EB 2019-04-15 13:35:36 22.3 18 26.3
003AA4EB 2019-04-15 13:01:16 22.5 18 26.3
003AA4EB 2019-04-15 12:26:56 22.5 18 26.4
003AA4EB 2019-04-15 11:52:36 22.3 16 26.3
003AA4EB 2019-04-15 11:18:16 22.2 16 26.4
003AA4EB 2019-04-15 10:43:57 22.2 16 26.6
003AA4EB 2019-04-15 10:09:39 22.2 17 26.6
003AA4EB 2019-04-15 09:35:20 22.2 17 26.8
003AA4EB 2019-04-15 09:01:01 22 17 26.9
003AA4EB 2019-04-15 08:26:42 22 17 26.9
003AA4EB 2019-04-15 07:52:22 22 17 27
003AA4EB 2019-04-15 07:18:02 22 17 26.9
003AA4EB 2019-04-15 06:43:43 22 17 27
003AA4EB 2019-04-15 06:09:24 22 17 26.8
003AA4EB 2019-04-15 05:35:04 22 17 26.7
003AA4EB 2019-04-15 05:00:46 21.9 17 26.7
003AA4EB 2019-04-15 04:26:26 22 17 26.5
003AA4EB 2019-04-15 03:52:06 22 17 26.6
003AA4EB 2019-04-15 03:17:46 22 17 26.6
003AA4EB 2019-04-15 02:43:26 22 17 26.3
003AA4EB 2019-04-15 02:09:07 22 17 26.3
003AA4EB 2019-04-15 01:34:47 22 18 26.3
003AA4EB 2019-04-15 01:00:27 22 18 26.5
003AA4EB 2019-04-15 00:26:07 22 18 26.3
003AA4EB 2019-04-14 23:51:47 21.9 18 26.4
003AA4EB 2019-04-14 23:17:25 22 18 26.4
003AA4EB 2019-04-14 22:43:04 22 18 26.5
003AA4EB 2019-04-14 22:08:44 22 18 26.6
003AA4EB 2019-04-14 21:34:24 22 18 26.6
003AA4EB 2019-04-14 21:00:04 22.1 18 26.5
003AA4EB 2019-04-14 20:25:43 22 18 26.5
003AA4EB 2019-04-14 19:51:23 22.1 18 26.5
003AA4EB 2019-04-14 19:17:02 22.1 18 26.3
003AA4EB 2019-04-14 18:42:43 22 18 26.2
003AA4EB 2019-04-14 18:08:23 22 18 26.2
003AA4EB 2019-04-14 17:34:02 22 18 26.1
003AA4EB 2019-04-14 16:59:43 22 18 26.3
003AA4EB 2019-04-14 16:25:23 22 18 26.3
003AA4EB 2019-04-14 15:51:02 22 18 26.4
003AA4EB 2019-04-14 15:16:41 22 18 26.4
003AA4EB 2019-04-14 14:42:21 22 18 26.5
003AA4EB 2019-04-14 14:08:00 22 18 26.6
003AA4EB 2019-04-14 13:33:41 22 18 26.7
003AA4EB 2019-04-14 12:59:21 22 18 26.6
003AA4EB 2019-04-14 12:25:01 22 18 26.7
003AA4EB 2019-04-14 11:50:41 22 18 26.7
003AA4EB 2019-04-14 11:16:22 22 18 26.5
003AA4EB 2019-04-14 10:42:01 22 18 26.4
003AA4EB 2019-04-14 10:07:42 22 18 26.4
003AA4EB 2019-04-14 09:33:22 22 18 26.4
003AA4EB 2019-04-14 08:59:01 22 18 26.3
003AA4EB 2019-04-14 08:24:41 22 18 26.3
003AA4EB 2019-04-14 07:50:20 22 18 26.3
003AA4EB 2019-04-14 07:16:00 22 18 26.2
003AA4EB 2019-04-14 06:41:41 22 18 26.1
003AA4EB 2019-04-14 06:07:20 22 18 26.2
003AA4EB 2019-04-14 05:33:00 22 18 26.2
003AA4EB 2019-04-14 04:58:40 22 18 26.5
003AA4EB 2019-04-14 04:24:19 22 18 26.4
003AA4EB 2019-04-14 03:49:59 22 18 26.7
003AA4EB 2019-04-14 03:15:39 22 18 26.8
003AA4EB 2019-04-14 02:41:19 22 18 26.7
003AA4EB 2019-04-14 02:07:01 22 18 26.6
003AA4EB 2019-04-14 01:32:43 22.1 18 26.6
003AA4EB 2019-04-14 00:58:24 22.1 18 26.6
003AA4EB 2019-04-14 00:24:05 22.1 18 26.7
003AA4EB 2019-04-13 23:49:44 22.2 18 26.8
003AA4EB 2019-04-13 23:15:26 22.2 18 26.8
003AA4EB 2019-04-13 22:41:05 22.2 18 26.8
003AA4EB 2019-04-13 22:06:46 22.2 18 26.9
003AA4EB 2019-04-13 21:32:26 22.2 18 26.9
003AA4EB 2019-04-13 20:58:05 22.2 18 27
003AA4EB 2019-04-13 20:23:46 22.2 18 27.2
003AA4EB 2019-04-13 19:49:25 22.2 18 27.1
003AA4EB 2019-04-13 19:15:05 22.3 18 27
003AA4EB 2019-04-13 18:40:43 22.3 18 27.1
003AA4EB 2019-04-13 18:06:22 22.3 18 27.1
003AA4EB 2019-04-13 17:32:02 22.3 18 27.1
003AA4EB 2019-04-13 16:57:42 22.4 18 27.2
003AA4EB 2019-04-13 16:23:20 22.4 18 27.1
003AA4EB 2019-04-13 15:49:00 22.5 18 27.1
003AA4EB 2019-04-13 15:14:40 22.5 18 27
003AA4EB 2019-04-13 14:40:20 22.5 18 26.8
003AA4EB 2019-04-13 14:06:00 22.5 18 26.8
003AA4EB 2019-04-13 13:31:40 22.5 18 26.5
003AA4EB 2019-04-13 12:57:20 22.5 18 26.3
003AA4EB 2019-04-13 12:22:59 22.5 18 26.3
003AA4EB 2019-04-13 11:48:39 22.5 18 26.4
003AA4EB 2019-04-13 11:14:19 22.5 18 26.4
003AA4EB 2019-04-13 10:39:58 22.5 18 26.4
003AA4EB 2019-04-13 10:05:37 22.5 18 26.4
003AA4EB 2019-04-13 09:31:16 22.5 18 26.4
003AA4EB 2019-04-13 08:56:55 22.5 18 26.3
003AA4EB 2019-04-13 08:22:33 22.5 18 26.3
003AA4EB 2019-04-13 07:48:11 22.5 18 26.2
003AA4EB 2019-04-13 07:13:51 22.5 18 26.2
003AA4EB 2019-04-13 06:39:30 22.5 18 26.2
003AA4EB 2019-04-13 06:05:08 22.5 18 26
003AA4EB 2019-04-13 05:30:46 22.5 18 26.3
003AA4EB 2019-04-13 04:56:25 22.5 18 26.6
003AA4EB 2019-04-13 04:22:03 22.5 18 26.8
003AA4EB 2019-04-13 03:47:42 22.5 18 26.7
003AA4EB 2019-04-13 03:13:21 22.5 18 26.5
003AA4EB 2019-04-13 02:39:00 22.6 18 26.5
003AA4EB 2019-04-13 02:04:39 22.6 18 26.6
003AA4EB 2019-04-13 01:30:17 22.7 18 26.6
003AA4EB 2019-04-13 00:55:56 22.7 18 26.7
003AA4EB 2019-04-13 00:21:35 22.7 19 26.7
003AA4EB 2019-04-12 23:47:13 22.7 19 26.8
003AA4EB 2019-04-12 23:12:52 22.7 19 26.9
003AA4EB 2019-04-12 22:38:30 22.8 19 27
003AA4EB 2019-04-12 22:04:08 22.9 19 27.1
003AA4EB 2019-04-12 21:29:47 22.9 19 27.2
003AA4EB 2019-04-12 20:55:26 22.9 19 27.2
003AA4EB 2019-04-12 20:21:06 22.9 19 27.3
003AA4EB 2019-04-12 19:46:44 22.9 18 27.2
003AA4EB 2019-04-12 19:12:25 22.9 18 27.1
003AA4EB 2019-04-12 18:38:03 23.1 17 27.3
003AA4EB 2019-04-12 18:03:44 23.1 17 27.4
003AA4EB 2019-04-12 17:29:23 23.1 17 27.4
003AA4EB 2019-04-12 16:55:02 23.1 17 27.8
003AA4EB 2019-04-12 16:20:40 23.1 18 27.8
003AA4EB 2019-04-12 15:46:19 23 18 28.1
003AA4EB 2019-04-12 15:11:56 22.8 18 27.5
003AA4EB 2019-04-12 14:37:33 22.5 19 26.2
003AA4EB 2019-04-12 14:03:11 22.2 19 20.9
003AA4EB 2019-04-12 13:28:50 21.6 20 21.1
003AA4EB 2019-04-12 12:54:27 20.7 26 0